| time (UTC) | temp F | wind direction | speed MPH | gust MPH | rain 1hr in | rain 24hr in | rain mn in | humidity % | barometer mb |
| 20260510054919 | 46 | 329 | 0.0 | 0.0 | 0.00 | 0.00 | 0.00 | 95 | 1008.3 |
| 20260510054414 | 46 | 329 | 0.0 | 0.0 | 0.00 | 0.00 | 0.00 | 95 | 1008.4 |
| 20260510053909 | 46 | 329 | 0.0 | 0.0 | 0.00 | 0.00 | 0.00 | 95 | 1008.4 |
| 20260510053405 | 46 | 329 | 0.0 | 0.0 | 0.00 | 0.00 | 0.00 | 95 | 1008.3 |
| 20260510052901 | 47 | 329 | 0.0 | 0.0 | 0.00 | 0.00 | 0.00 | 95 | 1008.5 |
| 20260510052357 | 47 | 329 | 0.0 | 0.0 | 0.00 | 0.00 | 0.00 | 95 | 1008.4 |
| 20260510051853 | 47 | 329 | 0.0 | 0.0 | 0.00 | 0.00 | 0.00 | 95 | 1008.6 |
| 20260510051350 | 47 | 330 | 0.0 | 0.0 | 0.00 | 0.00 | 0.00 | 95 | 1008.6 |
| 20260510050847 | 47 | 330 | 0.0 | 0.0 | 0.00 | 0.00 | 0.00 | 95 | 1008.4 |
| 20260510050344 | 47 | 329 | 0.0 | 0.0 | 0.00 | 0.00 | 0.00 | 95 | 1008.5 |
| 20260510045840 | 48 | 328 | 0.0 | 0.0 | 0.00 | 0.00 | 0.00 | 95 | 1008.5 |
| 20260510045337 | 47 | 339 | 0.0 | 0.0 | 0.00 | 0.00 | 0.00 | 95 | 1008.6 |
| 20260510044835 | 47 | 330 | 0.0 | 0.0 | 0.00 | 0.00 | 0.00 | 94 | 1008.6 |
| 20260510044331 | 47 | 329 | 0.0 | 0.0 | 0.00 | 0.00 | 0.00 | 94 | 1008.6 |
| 20260510043828 | 48 | 329 | 0.0 | 0.0 | 0.00 | 0.00 | 0.00 | 94 | 1008.6 |
| 20260510043324 | 48 | 328 | 0.0 | 0.0 | 0.00 | 0.00 | 0.00 | 94 | 1008.9 |
| 20260510042822 | 48 | 322 | 0.0 | 0.0 | 0.00 | 0.00 | 0.00 | 94 | 1008.7 |
| 20260510042317 | 48 | 322 | 0.0 | 0.0 | 0.00 | 0.00 | 0.00 | 94 | 1008.7 |
| 20260510041814 | 48 | 322 | 0.0 | 0.0 | 0.00 | 0.00 | 0.00 | 94 | 1008.8 |
| 20260510041311 | 48 | 322 | 0.0 | 0.0 | 0.00 | 0.00 | 0.00 | 94 | 1008.9 |
| 20260510040809 | 48 | 322 | 0.0 | 0.0 | 0.00 | 0.00 | 0.00 | 94 | 1009.0 |
| 20260510040305 | 48 | 322 | 0.0 | 0.0 | 0.00 | 0.00 | 0.00 | 94 | 1008.7 |
| 20260510035800 | 49 | 322 | 0.0 | 0.0 | 0.00 | 0.13 | 0.13 | 94 | 1008.9 |
| 20260510035256 | 49 | 324 | 0.0 | 0.0 | 0.00 | 0.13 | 0.13 | 94 | 1008.9 |
| 20260510034752 | 50 | 338 | 0.0 | 0.0 | 0.00 | 0.13 | 0.13 | 94 | 1008.9 |
| 20260510034250 | 50 | 338 | 0.0 | 0.0 | 0.00 | 0.13 | 0.13 | 94 | 1008.7 |
| 20260510033746 | 49 | 327 | 0.0 | 0.0 | 0.00 | 0.13 | 0.13 | 94 | 1008.7 |
| 20260510033244 | 49 | 327 | 0.0 | 0.0 | 0.00 | 0.13 | 0.13 | 93 | 1008.7 |
| 20260510032740 | 49 | 327 | 0.0 | 0.0 | 0.00 | 0.13 | 0.13 | 93 | 1008.9 |
| 20260510032236 | 49 | 327 | 0.0 | 0.0 | 0.00 | 0.13 | 0.13 | 93 | 1008.7 |
| 20260510031732 | 50 | 327 | 0.0 | 0.0 | 0.00 | 0.13 | 0.13 | 93 | 1009.1 |
| 20260510031227 | 50 | 327 | 0.0 | 0.0 | 0.00 | 0.13 | 0.13 | 93 | 1008.8 |
| 20260510030727 | 50 | 327 | 0.0 | 0.0 | 0.00 | 0.13 | 0.13 | 93 | 1008.7 |
| 20260510030225 | 50 | 327 | 0.0 | 0.0 | 0.00 | 0.13 | 0.13 | 92 | 1008.9 |
| 20260510025722 | 50 | 327 | 0.0 | 0.0 | 0.00 | 0.13 | 0.13 | 92 | 1008.7 |
| 20260510025219 | 51 | 327 | 0.0 | 0.0 | 0.00 | 0.13 | 0.13 | 92 | 1008.5 |
| 20260510024716 | 51 | 327 | 0.0 | 0.0 | 0.00 | 0.13 | 0.13 | 92 | 1008.5 |
| 20260510024213 | 51 | 325 | 0.0 | 0.0 | 0.00 | 0.13 | 0.13 | 92 | 1008.3 |
| 20260510023708 | 51 | 325 | 0.0 | 0.0 | 0.00 | 0.13 | 0.13 | 92 | 1008.5 |
| 20260510023206 | 51 | 326 | 0.0 | 0.0 | 0.00 | 0.13 | 0.13 | 91 | 1008.6 |
| 20260510022701 | 52 | 324 | 0.0 | 0.0 | 0.00 | 0.13 | 0.13 | 91 | 1008.4 |
| 20260510022156 | 52 | 324 | 0.0 | 0.0 | 0.00 | 0.13 | 0.13 | 91 | 1008.5 |
| 20260510021652 | 52 | 324 | 0.0 | 0.0 | 0.00 | 0.13 | 0.13 | 91 | 1008.7 |
| 20260510021150 | 53 | 324 | 0.0 | 0.0 | 0.00 | 0.13 | 0.13 | 90 | 1008.6 |
| 20260510020649 | 53 | 326 | 0.0 | 0.0 | 0.00 | 0.13 | 0.13 | 90 | 1008.5 |
| 20260510020145 | 54 | 325 | 0.0 | 0.0 | 0.00 | 0.13 | 0.13 | 90 | 1008.4 |
| 20260510015641 | 54 | 321 | 0.0 | 0.0 | 0.00 | 0.13 | 0.13 | 90 | 1008.3 |
| 20260510015138 | 54 | 329 | 0.0 | 0.0 | 0.00 | 0.13 | 0.13 | 89 | 1008.6 |
| 20260510014633 | 55 | 325 | 0.0 | 1.0 | 0.00 | 0.13 | 0.13 | 90 | 1008.6 |
| 20260510014131 | 55 | 283 | 0.0 | 1.0 | 0.00 | 0.13 | 0.13 | 90 | 1008.5 |
| 20260510013631 | 55 | 332 | 0.0 | 0.0 | 0.00 | 0.13 | 0.13 | 89 | 1008.3 |
| 20260510013126 | 55 | 330 | 0.0 | 0.0 | 0.00 | 0.13 | 0.13 | 89 | 1008.3 |
| 20260510012626 | 55 | 299 | 0.0 | 1.0 | 0.00 | 0.13 | 0.13 | 90 | 1008.2 |
| 20260510012123 | 55 | 314 | 0.0 | 0.0 | 0.00 | 0.13 | 0.13 | 90 | 1007.9 |
| 20260510011622 | 55 | 332 | 0.0 | 0.0 | 0.00 | 0.13 | 0.13 | 89 | 1008.1 |
| 20260510011118 | 55 | 319 | 0.0 | 0.0 | 0.00 | 0.13 | 0.13 | 89 | 1008.1 |
| 20260510010615 | 55 | 318 | 0.0 | 1.0 | 0.00 | 0.13 | 0.13 | 89 | 1008.1 |
| 20260510010112 | 56 | 327 | 0.0 | 0.0 | 0.00 | 0.13 | 0.13 | 89 | 1007.8 |
| 20260510005608 | 56 | 339 | 0.0 | 1.0 | 0.00 | 0.13 | 0.13 | 89 | 1007.8 |
| 20260510005105 | 56 | 335 | 0.0 | 0.0 | 0.00 | 0.13 | 0.13 | 89 | 1007.8 |
| 20260510004603 | 56 | 343 | 0.0 | 0.0 | 0.00 | 0.13 | 0.13 | 89 | 1007.8 |
| 20260510004101 | 56 | 315 | 0.0 | 1.0 | 0.00 | 0.13 | 0.13 | 89 | 1007.8 |
| 20260510003557 | 56 | 334 | 0.0 | 0.0 | 0.00 | 0.13 | 0.13 | 87 | 1007.7 |
| 20260510003053 | 56 | 323 | 0.0 | 0.0 | 0.00 | 0.13 | 0.13 | 87 | 1007.6 |
| 20260510002548 | 56 | 331 | 0.0 | 0.0 | 0.00 | 0.13 | 0.13 | 85 | 1007.5 |
| 20260510002046 | 56 | 336 | 0.0 | 0.0 | 0.00 | 0.13 | 0.13 | 84 | 1007.4 |
| 20260510001543 | 57 | 335 | 0.0 | 0.0 | 0.00 | 0.13 | 0.13 | 83 | 1007.5 |
| 20260510001041 | 57 | 335 | 0.0 | 0.0 | 0.00 | 0.13 | 0.13 | 83 | 1007.4 |
| 20260510000536 | 58 | 325 | 0.0 | 0.0 | 0.00 | 0.13 | 0.13 | 81 | 1007.5 |
| 20260510000033 | 58 | 326 | 0.0 | 0.0 | 0.00 | 0.13 | 0.13 | 81 | 1007.4 |
| 20260509235530 | 59 | 330 | 0.0 | 0.0 | 0.00 | 0.13 | 0.13 | 80 | 1007.3 |
| 20260509235027 | 59 | 334 | 0.0 | 0.0 | 0.00 | 0.13 | 0.13 | 79 | 1007.3 |
| 20260509234523 | 59 | 321 | 0.0 | 1.0 | 0.00 | 0.13 | 0.13 | 78 | 1007.4 |
| 20260509234021 | 60 | 333 | 0.0 | 0.0 | 0.00 | 0.13 | 0.13 | 77 | 1007.3 |
| 20260509233518 | 60 | 322 | 0.0 | 1.0 | 0.00 | 0.13 | 0.13 | 76 | 1007.3 |
| 20260509233015 | 60 | 330 | 0.0 | 0.0 | 0.00 | 0.13 | 0.13 | 75 | 1007.3 |
| 20260509232512 | 60 | 327 | 0.0 | 0.0 | 0.00 | 0.13 | 0.13 | 75 | 1007.3 |
| 20260509232008 | 60 | 327 | 0.0 | 1.0 | 0.00 | 0.13 | 0.13 | 74 | 1007.3 |
| 20260509231504 | 60 | 321 | 0.0 | 1.0 | 0.00 | 0.13 | 0.13 | 73 | 1007.3 |
| 20260509231002 | 61 | 319 | 0.0 | 1.0 | 0.00 | 0.13 | 0.13 | 73 | 1007.5 |
| 20260509230459 | 61 | 323 | 0.0 | 1.0 | 0.00 | 0.13 | 0.13 | 73 | 1007.4 |
| 20260509225955 | 61 | 321 | 0.0 | 1.0 | 0.00 | 0.13 | 0.13 | 72 | 1007.4 |
| 20260509225452 | 61 | 321 | 0.0 | 1.0 | 0.00 | 0.13 | 0.13 | 73 | 1007.4 |
| 20260509224947 | 61 | 317 | 0.0 | 1.0 | 0.00 | 0.13 | 0.13 | 73 | 1007.3 |
| 20260509224443 | 61 | 253 | 0.0 | 1.0 | 0.00 | 0.13 | 0.13 | 72 | 1007.3 |
| 20260509223940 | 61 | 316 | 0.0 | 1.0 | 0.00 | 0.13 | 0.13 | 72 | 1007.4 |
| 20260509223437 | 61 | 331 | 0.0 | 0.0 | 0.00 | 0.13 | 0.13 | 72 | 1007.4 |
| 20260509222934 | 61 | 332 | 0.0 | 0.0 | 0.00 | 0.13 | 0.13 | 71 | 1007.3 |
| 20260509222429 | 62 | 326 | 0.0 | 0.0 | 0.00 | 0.13 | 0.13 | 72 | 1007.4 |
| 20260509221926 | 62 | 325 | 0.0 | 0.0 | 0.00 | 0.13 | 0.13 | 71 | 1007.4 |
| 20260509221422 | 62 | 323 | 0.0 | 0.0 | 0.00 | 0.13 | 0.13 | 69 | 1007.3 |
| 20260509220918 | 62 | 330 | 0.0 | 0.0 | 0.00 | 0.13 | 0.13 | 69 | 1007.4 |
| 20260509220414 | 62 | 328 | 0.0 | 0.0 | 0.00 | 0.13 | 0.13 | 70 | 1007.6 |
| 20260509215910 | 62 | 358 | 2.0 | 2.0 | 0.00 | 0.13 | 0.13 | 69 | 1007.8 |
| 20260509215406 | 62 | 339 | 1.0 | 1.0 | 0.00 | 0.13 | 0.13 | 69 | 1007.7 |
| 20260509214904 | 61 | 357 | 1.0 | 1.0 | 0.00 | 0.13 | 0.13 | 69 | 1007.6 |
| 20260509214401 | 62 | 344 | 0.0 | 1.0 | 0.00 | 0.13 | 0.13 | 69 | 1007.9 |
| 20260509213858 | 62 | 328 | 0.0 | 0.0 | 0.00 | 0.13 | 0.13 | 70 | 1007.6 |
| 20260509213353 | 61 | 325 | 0.0 | 0.0 | 0.00 | 0.13 | 0.13 | 71 | 1007.7 |
| 20260509212851 | 61 | 318 | 0.0 | 0.0 | 0.00 | 0.13 | 0.13 | 72 | 1007.7 |
| 20260509212348 | 61 | 330 | 0.0 | 1.0 | 0.00 | 0.13 | 0.13 | 72 | 1007.6 |
| 20260509211844 | 61 | 312 | 0.0 | 1.0 | 0.00 | 0.13 | 0.13 | 72 | 1007.5 |
| 20260509211340 | 61 | 327 | 0.0 | 1.0 | 0.00 | 0.13 | 0.13 | 70 | 1007.8 |
| 20260509210837 | 61 | 315 | 1.0 | 2.0 | 0.00 | 0.13 | 0.13 | 71 | 1007.8 |
| 20260509210335 | 61 | 302 | 1.0 | 1.0 | 0.00 | 0.13 | 0.13 | 70 | 1007.6 |
| 20260509205834 | 61 | 298 | 1.0 | 2.0 | 0.00 | 0.13 | 0.13 | 71 | 1007.8 |
| 20260509205329 | 60 | 330 | 0.0 | 2.0 | 0.00 | 0.13 | 0.13 | 73 | 1007.7 |
| 20260509204826 | 60 | 335 | 0.0 | 0.0 | 0.00 | 0.13 | 0.13 | 74 | 1007.7 |
| 20260509204322 | 60 | 318 | 0.0 | 1.0 | 0.00 | 0.13 | 0.13 | 74 | 1008.1 |
| 20260509203818 | 60 | 347 | 0.0 | 2.0 | 0.00 | 0.13 | 0.13 | 73 | 1007.5 |
| 20260509203315 | 60 | 354 | 0.0 | 1.0 | 0.00 | 0.13 | 0.13 | 72 | 1007.8 |
| 20260509202812 | 60 | 350 | 1.0 | 2.0 | 0.00 | 0.13 | 0.13 | 70 | 1007.8 |
| 20260509202308 | 60 | 339 | 0.0 | 2.0 | 0.00 | 0.13 | 0.13 | 69 | 1007.6 |
| 20260509201807 | 61 | 340 | 0.0 | 2.0 | 0.00 | 0.13 | 0.13 | 70 | 1007.8 |
| 20260509201304 | 62 | 1 | 2.0 | 3.0 | 0.00 | 0.13 | 0.13 | 68 | 1007.7 |
| 20260509200800 | 61 | 329 | 0.0 | 0.0 | 0.00 | 0.13 | 0.13 | 72 | 1008.1 |
| 20260509200255 | 61 | 333 | 0.0 | 1.0 | 0.00 | 0.13 | 0.13 | 72 | 1008.0 |
| 20260509195752 | 61 | 356 | 2.0 | 2.0 | 0.00 | 0.13 | 0.13 | 74 | 1007.8 |
| 20260509195248 | 61 | 346 | 1.0 | 2.0 | 0.00 | 0.13 | 0.13 | 73 | 1008.1 |
| 20260509194747 | 60 | 344 | 1.0 | 1.0 | 0.00 | 0.13 | 0.13 | 74 | 1008.1 |
| 20260509194244 | 60 | 336 | 0.0 | 1.0 | 0.00 | 0.13 | 0.13 | 78 | 1008.2 |
| 20260509193741 | 59 | 14 | 2.0 | 3.0 | 0.00 | 0.13 | 0.13 | 76 | 1008.3 |
| 20260509193240 | 60 | 342 | 0.0 | 2.0 | 0.00 | 0.13 | 0.13 | 75 | 1008.0 |
| 20260509192737 | 60 | 341 | 0.0 | 1.0 | 0.00 | 0.13 | 0.13 | 75 | 1008.1 |
| 20260509192232 | 59 | 330 | 0.0 | 2.0 | 0.00 | 0.13 | 0.13 | 78 | 1008.1 |
| 20260509191728 | 59 | 234 | 2.0 | 2.0 | 0.00 | 0.13 | 0.13 | 80 | 1008.0 |
| 20260509191225 | 59 | 319 | 0.0 | 2.0 | 0.00 | 0.13 | 0.13 | 81 | 1008.3 |
| 20260509190721 | 59 | 332 | 2.0 | 3.0 | 0.00 | 0.13 | 0.13 | 79 | 1008.3 |
| 20260509190218 | 59 | 210 | 1.0 | 3.0 | 0.00 | 0.13 | 0.13 | 80 | 1008.3 |
| 20260509185715 | 59 | 249 | 1.0 | 2.0 | 0.07 | 0.13 | 0.13 | 81 | 1008.3 |
| 20260509185211 | 58 | 43 | 1.0 | 2.0 | 0.07 | 0.13 | 0.13 | 79 | 1008.8 |
| 20260509184709 | 58 | 331 | 0.0 | 1.0 | 0.00 | 0.12 | 0.12 | 78 | 1008.8 |
| 20260509184206 | 58 | 323 | 0.0 | 1.0 | 0.00 | 0.12 | 0.12 | 78 | 1008.9 |
| 20260509183702 | 58 | 333 | 0.0 | 1.0 | 0.00 | 0.12 | 0.12 | 77 | 1009.1 |
| 20260509183158 | 59 | 344 | 0.0 | 0.0 | 0.00 | 0.12 | 0.12 | 76 | 1009.1 |
| 20260509182653 | 59 | 346 | 0.0 | 0.0 | 0.00 | 0.12 | 0.12 | 73 | 1009.2 |
| 20260509182151 | 59 | 346 | 0.0 | 1.0 | 0.00 | 0.12 | 0.12 | 71 | 1009.2 |
| 20260509181649 | 59 | 345 | 0.0 | 0.0 | 0.00 | 0.12 | 0.12 | 73 | 1009.2 |
| 20260509181146 | 59 | 349 | 0.0 | 1.0 | 0.00 | 0.12 | 0.12 | 71 | 1009.1 |
| 20260509180642 | 59 | 338 | 0.0 | 1.0 | 0.00 | 0.12 | 0.12 | 72 | 1009.4 |
| 20260509180139 | 59 | 331 | 0.0 | 0.0 | 0.00 | 0.12 | 0.12 | 71 | 1009.6 |
| 20260509175635 | 59 | 331 | 0.0 | 0.0 | 0.00 | 0.12 | 0.12 | 74 | 1009.8 |
| 20260509175132 | 59 | 336 | 0.0 | 0.0 | 0.00 | 0.12 | 0.12 | 71 | 1009.6 |
| 20260509174628 | 59 | 327 | 0.0 | 1.0 | 0.00 | 0.12 | 0.12 | 70 | 1009.6 |
| 20260509174123 | 59 | 330 | 0.0 | 1.0 | 0.00 | 0.12 | 0.12 | 72 | 1009.6 |
| 20260509173619 | 59 | 339 | 0.0 | 0.0 | 0.00 | 0.12 | 0.12 | 73 | 1009.5 |
| 20260509173115 | 58 | 343 | 0.0 | 0.0 | 0.00 | 0.12 | 0.12 | 72 | 1009.5 |
| 20260509172612 | 58 | 337 | 0.0 | 1.0 | 0.00 | 0.12 | 0.12 | 74 | 1009.7 |
| 20260509172108 | 58 | 344 | 1.0 | 2.0 | 0.00 | 0.12 | 0.12 | 71 | 1009.5 |
| 20260509171604 | 58 | 340 | 0.0 | 1.0 | 0.00 | 0.12 | 0.12 | 72 | 1009.7 |
| 20260509171100 | 58 | 329 | 0.0 | 1.0 | 0.00 | 0.12 | 0.12 | 72 | 1009.8 |
| 20260509170556 | 59 | 331 | 0.0 | 1.0 | 0.00 | 0.12 | 0.12 | 71 | 1009.8 |
| 20260509170052 | 59 | 347 | 0.0 | 1.0 | 0.00 | 0.12 | 0.12 | 74 | 1009.9 |
| 20260509165551 | 59 | 330 | 0.0 | 0.0 | 0.00 | 0.12 | 0.12 | 73 | 1009.7 |
| 20260509165046 | 59 | 326 | 0.0 | 0.0 | 0.00 | 0.12 | 0.12 | 70 | 1009.8 |
| 20260509164543 | 59 | 327 | 0.0 | 0.0 | 0.00 | 0.12 | 0.12 | 74 | 1009.8 |
| 20260509164038 | 59 | 324 | 0.0 | 1.0 | 0.00 | 0.12 | 0.12 | 72 | 1009.9 |
| 20260509163537 | 58 | 323 | 0.0 | 1.0 | 0.00 | 0.12 | 0.12 | 74 | 1010.0 |
| 20260509163037 | 58 | 323 | 0.0 | 2.0 | 0.00 | 0.12 | 0.12 | 75 | 1010.0 |
| 20260509162534 | 58 | 319 | 0.0 | 1.0 | 0.00 | 0.12 | 0.12 | 80 | 1009.9 |
| 20260509162030 | 57 | 321 | 0.0 | 1.0 | 0.00 | 0.12 | 0.12 | 79 | 1009.6 |
| 20260509161528 | 57 | 340 | 0.0 | 1.0 | 0.00 | 0.12 | 0.12 | 77 | 1009.1 |
| 20260509161028 | 57 | 339 | 0.0 | 0.0 | 0.00 | 0.12 | 0.12 | 82 | 1009.0 |
| 20260509160524 | 57 | 335 | 0.0 | 0.0 | 0.00 | 0.12 | 0.12 | 82 | 1008.9 |
| 20260509160019 | 56 | 336 | 0.0 | 0.0 | 0.00 | 0.12 | 0.12 | 83 | 1009.2 |
| 20260509155515 | 55 | 340 | 0.0 | 0.0 | 0.00 | 0.12 | 0.12 | 86 | 1009.5 |
| 20260509155012 | 55 | 328 | 0.0 | 0.0 | 0.05 | 0.12 | 0.12 | 87 | 1009.5 |
| 20260509154508 | 55 | 328 | 0.0 | 0.0 | 0.05 | 0.12 | 0.12 | 87 | 1009.8 |
| 20260509154006 | 55 | 330 | 0.0 | 0.0 | 0.07 | 0.11 | 0.11 | 88 | 1010.1 |
| 20260509153503 | 55 | 343 | 0.0 | 0.0 | 0.05 | 0.10 | 0.10 | 88 | 1010.0 |
| 20260509152959 | 55 | 321 | 1.0 | 1.0 | 0.12 | 0.10 | 0.10 | 87 | 1010.4 |
| 20260509152455 | 55 | 295 | 1.0 | 1.0 | 0.12 | 0.09 | 0.09 | 87 | 1010.4 |
| 20260509151952 | 55 | 325 | 0.0 | 0.0 | 0.12 | 0.08 | 0.08 | 86 | 1010.4 |
| 20260509151448 | 55 | 333 | 0.0 | 0.0 | 0.19 | 0.07 | 0.07 | 83 | 1010.1 |
| 20260509150947 | 56 | 317 | 1.0 | 2.0 | 0.12 | 0.05 | 0.05 | 81 | 1010.5 |
| 20260509150444 | 56 | 279 | 2.0 | 3.0 | 0.05 | 0.04 | 0.04 | 80 | 1010.6 |
| 20260509145942 | 57 | 281 | 2.0 | 2.0 | 0.07 | 0.03 | 0.03 | 81 | 1010.6 |
| 20260509145442 | 57 | 264 | 3.0 | 4.0 | 0.07 | 0.02 | 0.02 | 79 | 1010.3 |
| 20260509144938 | 57 | 290 | 2.0 | 3.0 | 0.12 | 0.02 | 0.02 | 80 | 1010.5 |
| 20260509144435 | 58 | 266 | 2.0 | 3.0 | 0.05 | 0.01 | 0.01 | 78 | 1010.3 |
| 20260509143932 | 59 | 302 | 1.0 | 2.0 | 0.00 | 0.00 | 0.00 | 77 | 1010.2 |
| 20260509143430 | 59 | 301 | 1.0 | 2.0 | 0.00 | 0.00 | 0.00 | 76 | 1010.0 |
| 20260509142925 | 59 | 302 | 1.0 | 1.0 | 0.00 | 0.00 | 0.00 | 76 | 1009.9 |
| 20260509142422 | 59 | 288 | 2.0 | 4.0 | 0.00 | 0.00 | 0.00 | 74 | 1010.0 |
| 20260509141918 | 59 | 263 | 3.0 | 3.0 | 0.00 | 0.00 | 0.00 | 75 | 1009.7 |
| 20260509141415 | 58 | 293 | 2.0 | 3.0 | 0.00 | 0.00 | 0.00 | 73 | 1009.7 |
| 20260509140912 | 58 | 300 | 1.0 | 3.0 | 0.00 | 0.00 | 0.00 | 74 | 1009.8 |
| 20260509140408 | 59 | 270 | 2.0 | 3.0 | 0.00 | 0.00 | 0.00 | 74 | 1009.6 |
| 20260509135907 | 59 | 287 | 2.0 | 3.0 | 0.00 | 0.00 | 0.00 | 73 | 1009.7 |
| 20260509135404 | 59 | 272 | 2.0 | 3.0 | 0.00 | 0.00 | 0.00 | 72 | 1009.6 |
| 20260509134901 | 60 | 317 | 1.0 | 2.0 | 0.00 | 0.00 | 0.00 | 73 | 1009.4 |
| 20260509134358 | 60 | 319 | 1.0 | 3.0 | 0.00 | 0.00 | 0.00 | 72 | 1009.4 |
| 20260509133855 | 59 | 332 | 0.0 | 1.0 | 0.00 | 0.00 | 0.00 | 73 | 1009.4 |
| 20260509133352 | 59 | 313 | 2.0 | 2.0 | 0.00 | 0.00 | 0.00 | 71 | 1009.4 |
| 20260509132851 | 59 | 290 | 1.0 | 2.0 | 0.00 | 0.00 | 0.00 | 72 | 1009.3 |
| 20260509132348 | 59 | 332 | 0.0 | 1.0 | 0.00 | 0.00 | 0.00 | 72 | 1009.0 |
| 20260509131845 | 59 | 310 | 1.0 | 1.0 | 0.00 | 0.00 | 0.00 | 72 | 1009.2 |
| 20260509131342 | 59 | 311 | 1.0 | 4.0 | 0.00 | 0.00 | 0.00 | 72 | 1009.3 |
| 20260509130838 | 59 | 307 | 1.0 | 2.0 | 0.00 | 0.00 | 0.00 | 73 | 1009.2 |
| 20260509130334 | 59 | 300 | 1.0 | 1.0 | 0.00 | 0.00 | 0.00 | 73 | 1009.3 |
| 20260509125831 | 59 | 312 | 1.0 | 2.0 | 0.00 | 0.00 | 0.00 | 73 | 1009.3 |
| 20260509125327 | 59 | 284 | 1.0 | 2.0 | 0.00 | 0.00 | 0.00 | 73 | 1009.4 |
| 20260509124824 | 58 | 316 | 1.0 | 3.0 | 0.00 | 0.00 | 0.00 | 73 | 1009.5 |
| 20260509124320 | 58 | 303 | 1.0 | 2.0 | 0.00 | 0.00 | 0.00 | 73 | 1009.4 |
| 20260509123819 | 58 | 334 | 0.0 | 1.0 | 0.00 | 0.00 | 0.00 | 74 | 1009.4 |
| 20260509123316 | 58 | 299 | 1.0 | 2.0 | 0.00 | 0.00 | 0.00 | 73 | 1009.2 |
| 20260509122811 | 58 | 294 | 2.0 | 2.0 | 0.00 | 0.00 | 0.00 | 73 | 1009.1 |
| 20260509122308 | 58 | 335 | 1.0 | 2.0 | 0.00 | 0.00 | 0.00 | 74 | 1009.0 |
| 20260509121805 | 58 | 320 | 1.0 | 1.0 | 0.00 | 0.00 | 0.00 | 74 | 1009.2 |
| 20260509121302 | 57 | 289 | 0.0 | 1.0 | 0.00 | 0.00 | 0.00 | 76 | 1009.3 |
| 20260509120801 | 57 | 327 | 0.0 | 1.0 | 0.00 | 0.00 | 0.00 | 75 | 1009.1 |
| 20260509120258 | 57 | 335 | 0.0 | 0.0 | 0.00 | 0.00 | 0.00 | 77 | 1009.4 |
| 20260509115756 | 56 | 329 | 0.0 | 1.0 | 0.00 | 0.00 | 0.00 | 76 | 1009.3 |
| 20260509115253 | 56 | 330 | 0.0 | 1.0 | 0.00 | 0.00 | 0.00 | 75 | 1009.2 |
| 20260509114751 | 56 | 329 | 0.0 | 0.0 | 0.00 | 0.00 | 0.00 | 74 | 1009.3 |
| 20260509114249 | 56 | 331 | 0.0 | 1.0 | 0.00 | 0.00 | 0.00 | 72 | 1009.3 |
| 20260509113748 | 56 | 323 | 0.0 | 1.0 | 0.00 | 0.00 | 0.00 | 71 | 1009.1 |
| 20260509113244 | 56 | 337 | 0.0 | 0.0 | 0.00 | 0.00 | 0.00 | 71 | 1008.9 |
| 20260509112741 | 56 | 344 | 0.0 | 1.0 | 0.00 | 0.00 | 0.00 | 71 | 1009.0 |
| 20260509112238 | 56 | 335 | 0.0 | 0.0 | 0.00 | 0.00 | 0.00 | 70 | 1009.1 |
| 20260509111736 | 56 | 335 | 0.0 | 0.0 | 0.00 | 0.00 | 0.00 | 72 | 1009.1 |
| 20260509111232 | 55 | 336 | 0.0 | 0.0 | 0.00 | 0.00 | 0.00 | 71 | 1009.1 |
| 20260509110730 | 55 | 340 | 0.0 | 0.0 | 0.00 | 0.00 | 0.00 | 72 | 1009.2 |
| 20260509110226 | 55 | 331 | 0.0 | 0.0 | 0.00 | 0.00 | 0.00 | 73 | 1009.2 |
| 20260509105724 | 55 | 334 | 0.0 | 0.0 | 0.00 | 0.00 | 0.00 | 73 | 1008.9 |
| 20260509105222 | 54 | 331 | 0.0 | 0.0 | 0.00 | 0.00 | 0.00 | 73 | 1008.9 |
| 20260509104718 | 54 | 332 | 0.0 | 0.0 | 0.00 | 0.00 | 0.00 | 75 | 1009.1 |
| 20260509104215 | 53 | 333 | 0.0 | 0.0 | 0.00 | 0.00 | 0.00 | 77 | 1008.9 |
| 20260509103714 | 53 | 334 | 0.0 | 0.0 | 0.00 | 0.00 | 0.00 | 77 | 1008.8 |
| 20260509103210 | 53 | 333 | 0.0 | 0.0 | 0.00 | 0.00 | 0.00 | 81 | 1008.9 |
| 20260509102709 | 53 | 333 | 0.0 | 0.0 | 0.00 | 0.00 | 0.00 | 81 | 1008.7 |
| 20260509102205 | 53 | 331 | 0.0 | 0.0 | 0.00 | 0.00 | 0.00 | 81 | 1008.9 |
| 20260509101701 | 53 | 342 | 0.0 | 0.0 | 0.00 | 0.00 | 0.00 | 82 | 1008.7 |
| 20260509101158 | 53 | 342 | 0.0 | 0.0 | 0.00 | 0.00 | 0.00 | 79 | 1008.9 |
| 20260509100655 | 53 | 340 | 0.0 | 0.0 | 0.00 | 0.00 | 0.00 | 82 | 1008.8 |
| 20260509100152 | 53 | 340 | 0.0 | 0.0 | 0.00 | 0.00 | 0.00 | 82 | 1008.7 |
| 20260509095649 | 53 | 341 | 0.0 | 0.0 | 0.00 | 0.00 | 0.00 | 82 | 1008.7 |
| 20260509095147 | 53 | 340 | 0.0 | 0.0 | 0.00 | 0.00 | 0.00 | 83 | 1008.7 |
| 20260509094643 | 53 | 345 | 0.0 | 0.0 | 0.00 | 0.00 | 0.00 | 83 | 1008.8 |
| 20260509094140 | 53 | 345 | 0.0 | 0.0 | 0.00 | 0.00 | 0.00 | 83 | 1008.7 |
| 20260509093638 | 53 | 345 | 0.0 | 0.0 | 0.00 | 0.00 | 0.00 | 84 | 1008.8 |
| 20260509093135 | 53 | 344 | 0.0 | 0.0 | 0.00 | 0.00 | 0.00 | 83 | 1008.7 |
| 20260509092633 | 53 | 345 | 0.0 | 0.0 | 0.00 | 0.00 | 0.00 | 83 | 1008.6 |
| 20260509092131 | 53 | 345 | 0.0 | 0.0 | 0.00 | 0.00 | 0.00 | 83 | 1008.8 |
| 20260509091629 | 53 | 345 | 0.0 | 0.0 | 0.00 | 0.00 | 0.00 | 84 | 1008.8 |
| 20260509091125 | 53 | 345 | 0.0 | 0.0 | 0.00 | 0.00 | 0.00 | 84 | 1008.8 |
| 20260509090623 | 53 | 345 | 0.0 | 0.0 | 0.00 | 0.00 | 0.00 | 83 | 1008.9 |
| 20260509090120 | 53 | 345 | 0.0 | 0.0 | 0.00 | 0.00 | 0.00 | 83 | 1009.0 |
| 20260509085617 | 53 | 345 | 0.0 | 0.0 | 0.00 | 0.00 | 0.00 | 82 | 1008.9 |
| 20260509085113 | 53 | 345 | 0.0 | 1.0 | 0.00 | 0.00 | 0.00 | 82 | 1008.9 |
| 20260509084611 | 53 | 347 | 1.0 | 1.0 | 0.00 | 0.00 | 0.00 | 83 | 1008.9 |
| 20260509084107 | 53 | 344 | 0.0 | 0.0 | 0.00 | 0.00 | 0.00 | 83 | 1009.2 |
| 20260509083605 | 53 | 344 | 0.0 | 0.0 | 0.00 | 0.00 | 0.00 | 83 | 1009.0 |
| 20260509083101 | 53 | 344 | 0.0 | 0.0 | 0.00 | 0.00 | 0.00 | 82 | 1009.1 |
| 20260509082559 | 53 | 344 | 0.0 | 0.0 | 0.00 | 0.00 | 0.00 | 82 | 1009.2 |
| 20260509082055 | 53 | 344 | 0.0 | 1.0 | 0.00 | 0.00 | 0.00 | 82 | 1009.2 |
| 20260509081553 | 53 | 350 | 1.0 | 1.0 | 0.00 | 0.00 | 0.00 | 82 | 1009.5 |
| 20260509081049 | 53 | 348 | 0.0 | 1.0 | 0.00 | 0.00 | 0.00 | 82 | 1009.3 |
| 20260509080547 | 53 | 339 | 0.0 | 0.0 | 0.00 | 0.00 | 0.00 | 82 | 1009.3 |
| 20260509080045 | 53 | 338 | 0.0 | 0.0 | 0.00 | 0.00 | 0.00 | 81 | 1009.2 |
| 20260509075542 | 53 | 338 | 0.0 | 0.0 | 0.00 | 0.00 | 0.00 | 81 | 1009.1 |
| 20260509075040 | 53 | 345 | 0.0 | 0.0 | 0.00 | 0.00 | 0.00 | 80 | 1009.3 |
| 20260509074537 | 53 | 336 | 0.0 | 0.0 | 0.00 | 0.00 | 0.00 | 81 | 1009.4 |
| 20260509074034 | 53 | 350 | 0.0 | 1.0 | 0.00 | 0.00 | 0.00 | 81 | 1009.6 |
| 20260509073530 | 53 | 342 | 0.0 | 1.0 | 0.00 | 0.00 | 0.00 | 81 | 1009.6 |
| 20260509073027 | 53 | 339 | 0.0 | 0.0 | 0.00 | 0.00 | 0.00 | 80 | 1009.3 |
| 20260509072523 | 53 | 337 | 0.0 | 0.0 | 0.00 | 0.00 | 0.00 | 80 | 1009.3 |
| 20260509072020 | 53 | 342 | 0.0 | 0.0 | 0.00 | 0.00 | 0.00 | 79 | 1009.5 |
| 20260509071517 | 53 | 339 | 0.0 | 0.0 | 0.00 | 0.00 | 0.00 | 79 | 1009.5 |
| 20260509071014 | 53 | 329 | 0.0 | 1.0 | 0.00 | 0.00 | 0.00 | 79 | 1009.4 |
| 20260509070512 | 53 | 332 | 0.0 | 1.0 | 0.00 | 0.00 | 0.00 | 79 | 1009.5 |
| 20260509070008 | 53 | 340 | 0.0 | 0.0 | 0.00 | 0.00 | 0.00 | 79 | 1009.2 |
| 20260509065503 | 53 | 343 | 0.0 | 1.0 | 0.00 | 0.00 | 0.00 | 79 | 1009.0 |
| 20260509064959 | 54 | 330 | 0.0 | 0.0 | 0.00 | 0.00 | 0.00 | 79 | 1009.1 |
| 20260509064457 | 54 | 334 | 0.0 | 0.0 | 0.00 | 0.00 | 0.00 | 79 | 1009.0 |
| 20260509063955 | 54 | 337 | 0.0 | 0.0 | 0.00 | 0.00 | 0.00 | 79 | 1009.0 |
| 20260509063450 | 54 | 329 | 0.0 | 0.0 | 0.00 | 0.00 | 0.00 | 80 | 1009.3 |
| 20260509062948 | 53 | 329 | 0.0 | 0.0 | 0.00 | 0.00 | 0.00 | 80 | 1009.3 |
| 20260509062445 | 52 | 316 | 0.0 | 1.0 | 0.00 | 0.00 | 0.00 | 81 | 1009.1 |
| 20260509061943 | 52 | 329 | 0.0 | 0.0 | 0.00 | 0.00 | 0.00 | 81 | 1009.5 |
| 20260509061439 | 53 | 330 | 0.0 | 0.0 | 0.00 | 0.00 | 0.00 | 81 | 1009.5 |
| 20260509060937 | 53 | 330 | 0.0 | 0.0 | 0.00 | 0.00 | 0.00 | 80 | 1009.4 |
| 20260509060434 | 53 | 330 | 0.0 | 0.0 | 0.00 | 0.00 | 0.00 | 80 | 1009.6 |
| 20260509055929 | 53 | 338 | 0.0 | 0.0 | 0.00 | 0.00 | 0.00 | 80 | 1009.9 |
| 20260509055425 | 53 | 340 | 0.0 | 0.0 | 0.00 | 0.00 | 0.00 | 80 | 1009.9 |